Montgomery, AL

2:38 PM CDT on September 25, 2016 (GMT -0500)
Maxwell Air Force Base

Weather History for KMXF - September, 2013

Change the Weather History Date:

Saturday, September 21, 2013

  Actual Average Record
Temperature  
Mean Temperature 73 °F -  
Max Temperature 78 °F 83 °F 97 °F (2010)
Min Temperature 69 °F 64 °F 55 °F (2006)
Cooling Degree Days 8    
Growing Degree Days 23 (Base 50)    
Moisture  
Dew Point 72 °F    
Average Humidity 92    
Maximum Humidity 100    
Minimum Humidity 83    
Precipitation  
Precipitation 0.59 in - - ()
Sea Level Pressure  
Sea Level Pressure 29.80 in    
Wind  
Wind Speed 7 mph (SW)    
Max Wind Speed 10 mph    
Max Gust Speed 18 mph    
Visibility 9 miles    
Events Rain    
Averages and records for this station are not official NWS values.
T = Trace of Precipitation, MM = Missing Value Source: NWS Daily Summary

Daily Weather History Graph

Daily Weather History Graph

Search for Another Location

Airport or City:

Trip Planner

Search our weather history database for the weather conditions in past years. The results will help you decide how hot, cold, wet, or windy it might be!

Date:

Astronomy

Sep. 21, 2013 Rise Set
Actual Time 6:33 AM CDT 6:43 PM CDT
Civil Twilight 6:08 AM CDT 7:07 PM CDT
Nautical Twilight 5:40 AM CDT 7:36 PM CDT
Astronomical Twilight 5:11 AM CDT 8:05 PM CDT
Moon 8:05 PM CDT (9/21) 8:40 AM CDT (9/21)
Length of Visible Light 12h 58m
Length of Day
12h 09m
Waning Gibbous, 94% of the Moon is Illuminated
Sep 21
Waning Gibbous
Sep 26
Last Quarter
Oct 4
New
Oct 11
First Quarter
Oct 18
Full

Hourly Weather History & Observations

Time (CDT) Temp. Dew Point Humidity Pressure Visibility Wind Dir Wind Speed Gust Speed Precip Events Conditions
12:58 AM 76.5 °F 71.8 °F 85% 29.88 in 10.0 mi South 8.1 mph - N/A   Clear
1:58 AM 76.1 °F 72.0 °F 87% 29.85 in 10.0 mi South 6.9 mph - N/A   Scattered Clouds
2:58 AM 75.9 °F 72.1 °F 88% 29.83 in 10.0 mi South 5.8 mph - N/A   Overcast
3:58 AM 75.6 °F 72.1 °F 89% 29.83 in 10.0 mi South 4.6 mph - N/A   Overcast
4:58 AM 75.4 °F 72.3 °F 90% 29.81 in 10.0 mi SSE 5.8 mph - N/A   Overcast
5:31 AM 75.2 °F 71.6 °F 89% 29.82 in 10.0 mi South 4.6 mph - N/A   Light Drizzle
5:42 AM 75.2 °F 71.6 °F 89% 29.82 in 10.0 mi South 4.6 mph - N/A   Mostly Cloudy
5:58 AM 75.6 °F 72.5 °F 90% 29.83 in 10.0 mi South 4.6 mph - 0.00 in   Overcast
6:23 AM 75.2 °F 71.6 °F 89% 29.82 in 8.0 mi South 5.8 mph - N/A Rain Light Rain
6:39 AM 75.2 °F 73.4 °F 94% 29.82 in 10.0 mi South 6.9 mph - N/A   Mostly Cloudy
6:58 AM 75.2 °F 72.9 °F 92% 29.82 in 10.0 mi South 6.9 mph - 0.01 in   Overcast
7:58 AM 75.6 °F 71.8 °F 88% 29.82 in 10.0 mi South 9.2 mph - N/A   Mostly Cloudy
8:38 AM 77.0 °F 71.6 °F 83% 29.81 in 10.0 mi South 9.2 mph - N/A   Overcast
8:47 AM 77.0 °F 71.6 °F 83% 29.82 in 6.0 mi SSW 9.2 mph - N/A Rain Heavy Rain
8:58 AM 75.7 °F 72.1 °F 89% 29.83 in 8.0 mi SSW 8.1 mph - 0.02 in Rain Light Rain
9:38 AM 75.2 °F 73.4 °F 94% 29.81 in 10.0 mi South 8.1 mph - N/A   Light Drizzle
9:48 AM 75.2 °F 73.4 °F 94% 29.81 in 10.0 mi South 6.9 mph - N/A   Light Drizzle
9:58 AM 75.4 °F 73.6 °F 94% 29.83 in 10.0 mi South 8.1 mph - 0.02 in   Light Drizzle
10:23 AM 77.0 °F 75.2 °F 94% 29.81 in 10.0 mi South 9.2 mph - N/A   Light Drizzle
10:24 AM 77.0 °F 75.2 °F 94% 29.81 in 10.0 mi South 8.1 mph - N/A   Scattered Clouds
10:25 AM 77.0 °F 75.2 °F 94% 29.81 in 10.0 mi South 8.1 mph - N/A   Light Drizzle
10:58 AM 76.5 °F 74.3 °F 93% 29.81 in 8.0 mi South 9.2 mph - 0.02 in Rain Light Rain
11:18 AM 77.0 °F 75.2 °F 94% 29.82 in 2.0 mi SSW 9.2 mph - N/A Rain Heavy Rain
11:23 AM 75.2 °F 75.2 °F 100% 29.82 in 1.2 mi SSW 8.1 mph - N/A Rain Heavy Rain
11:28 AM 75.2 °F 73.4 °F 94% 29.81 in 1.2 mi SSW 10.4 mph - N/A Rain Heavy Rain
11:38 AM 75.2 °F 73.4 °F 94% 29.81 in 1.8 mi SSW 8.1 mph - N/A Rain Light Rain
11:43 AM 75.2 °F 73.4 °F 94% 29.81 in 6.0 mi SW 10.4 mph - N/A Rain Light Rain
11:53 AM 75.2 °F 73.4 °F 94% 29.81 in 2.5 mi SSW 9.2 mph 18.4 mph N/A Rain Heavy Rain
11:58 AM 75.2 °F 73.4 °F 94% 29.82 in 3.0 mi SW 6.9 mph - 0.35 in Rain Heavy Rain
12:35 PM 77.0 °F 75.2 °F 94% 29.79 in 10.0 mi SW 4.6 mph - N/A   Partly Cloudy
12:58 PM 77.4 °F 75.2 °F 93% 29.79 in 10.0 mi SW 4.6 mph - 0.04 in   Partly Cloudy
1:05 PM 77.0 °F 75.2 °F 94% 29.78 in 10.0 mi Variable 4.6 mph - N/A   Light Drizzle
1:35 PM 77.0 °F 75.2 °F 94% 29.77 in 9.0 mi West 10.4 mph - N/A Rain Light Rain
1:45 PM 75.2 °F 73.4 °F 94% 29.77 in 10.0 mi WNW 9.2 mph 16.1 mph N/A Rain Light Rain
1:58 PM 75.6 °F 72.9 °F 91% 29.78 in 10.0 mi WNW 8.1 mph - 0.01 in   Light Drizzle
2:58 PM 75.7 °F 74.1 °F 95% 29.77 in 8.0 mi West 4.6 mph - 0.03 in Rain Light Rain
3:43 PM 75.2 °F 73.4 °F 94% 29.76 in 5.0 mi NNW 8.1 mph - N/A Rain Light Rain
3:48 PM 75.2 °F 71.6 °F 89% 29.76 in 7.0 mi NW 8.1 mph - N/A Rain Light Rain
3:58 PM 74.3 °F 72.3 °F 94% 29.77 in 10.0 mi North 4.6 mph - 0.04 in Rain Light Rain
4:03 PM 75.2 °F 71.6 °F 89% 29.76 in 10.0 mi North 8.1 mph - N/A Rain Light Rain
4:58 PM 73.0 °F 71.1 °F 93% 29.77 in 10.0 mi North 6.9 mph - 0.01 in Rain Light Rain
5:58 PM 72.9 °F 71.2 °F 95% 29.76 in 10.0 mi North 5.8 mph - 0.04 in   Light Drizzle
6:02 PM 73.4 °F 71.6 °F 94% 29.75 in 10.0 mi North 6.9 mph - N/A   Scattered Clouds
6:07 PM 71.6 °F 71.6 °F 100% 29.75 in 10.0 mi North 9.2 mph - N/A   Mostly Cloudy
6:37 PM 71.6 °F 69.8 °F 94% 29.76 in 10.0 mi North 9.2 mph - N/A   Overcast
6:49 PM 71.6 °F 69.8 °F 94% 29.76 in 10.0 mi North 6.9 mph - N/A Rain Light Rain
6:58 PM 70.7 °F 68.9 °F 94% 29.77 in 10.0 mi North 9.2 mph - 0.00 in   Light Drizzle
7:05 PM 69.8 °F 69.8 °F 100% 29.76 in 10.0 mi North 9.2 mph - N/A   Overcast
7:15 PM 69.8 °F 68.0 °F 94% 29.77 in 10.0 mi North 8.1 mph - N/A   Overcast
7:58 PM 70.0 °F 68.5 °F 95% 29.78 in 10.0 mi North 5.8 mph - 0.00 in   Overcast
8:58 PM 70.0 °F 68.4 °F 95% 29.79 in 10.0 mi North 6.9 mph - N/A   Overcast
9:58 PM 69.4 °F 67.3 °F 93% 29.80 in 10.0 mi North 6.9 mph - N/A   Overcast
10:58 PM 69.4 °F 66.7 °F 91% 29.80 in 10.0 mi NNW 2.3 mph - N/A   Overcast
11:58 PM 69.4 °F 66.7 °F 91% 29.80 in 10.0 mi North 5.8 mph - N/A   Overcast